Preview of NWS' New Version of Forecast
This preview is not operational and should not be used for support decisions.
Latest weather observations around

Tahlequah, Tahlequah Municipal Airport (KTQH)

Using English Units (Switch to International System of Units)
Date/ Time (CDT) Wind (mph) Vis. (mi) Weather Sky Cond. Temp (°F) Rel. Humidity Wind Chill (°F) Heat Index (°F) Pressure Precip. (in)
Air Dwpt 6 hour Altimeter (inHg) Sea level (inHg) 1 hr 3 hr 6 hr
Max Min
Notice The following observation data may not be complete
Apr 22 05:15   10 Clear CLR          %              
Apr 22 04:55 SSE 9 10 Clear CLR 63 54     72%     29.97        
Apr 22 04:35 SSE 8 10 Clear CLR 63 54     72%     29.97        
Apr 22 04:15 SSE 9 10 Clear CLR 63 54     72%     29.96        
Apr 22 03:55 SSE 11 10 Clear CLR 64 52     64%     29.96        
Apr 22 03:35 SSE 9 10 Clear CLR 64 52     64%     29.96        
Apr 22 03:15 SSE 9 10 Clear CLR 64 52     64%     29.95        
Apr 22 02:55 SSE 10 10 Clear CLR 64 52     64%     29.95        
Apr 22 02:35 SSE 8 10 Clear CLR 63 52     68%     29.96        
Apr 22 02:15 SSE 7 10 Clear CLR 63 52     68%     29.96        
Apr 22 01:55 SE 6 10 Clear CLR 63 52     68%     29.96        
Apr 22 01:35 SE 6 10 Clear CLR 63 52     68%     29.97        
Apr 22 01:15 SSE 5 10 Clear CLR 64 52     64%     29.97        
Apr 22 00:55 SSE 7 10 Clear CLR 64 52     64%     29.96        
Apr 22 00:35 SSE 8 10 Clear CLR 64 52     64%     29.96        
Apr 22 00:15 SSE 5 10 Clear CLR 64 52     64%     29.96        
Apr 21 23:55 SSE 5 10 Clear CLR 64 52     64%     29.96        
Apr 21 23:35 S 3 10 Clear CLR 66 52     60%     29.96        
Apr 21 23:15 SSE 6 10 Clear CLR 68 52     56%     29.95        
Apr 21 22:55 SSE 6 10 Clear CLR 68 52     56%     29.95        
Apr 21 22:35 SSE 6 10 Clear CLR 68 50     53%     29.95        
Apr 21 22:15 SSE 8 10 Clear CLR 68 50     53%     29.94        
Apr 21 21:55 SSE 7 10 Clear CLR 70 50     49%     29.94        
Apr 21 21:35 SSE 8 10 Clear CLR 70 50     49%     29.94        
Apr 21 21:15 S 6 10 Clear CLR 72 48     43%   71 29.94        
Apr 21 20:55 S 11 10 Clear CLR 72 48     43%   71 29.92        
Apr 21 20:35 S 10 10 Clear CLR 73 46     38%   72 29.91        
Apr 21 20:15 SSE 13 10 Clear CLR 73 46     38%   72 29.9        
Apr 21 19:55 SSE 14 10 Clear CLR 75 46     36%   74 29.89        
Apr 21 19:35 SSE 10 10 Clear CLR 75 48     38%   74 29.87        
Apr 21 19:15 SE 9 10 Clear CLR 77 50     39%   76 29.86        
Apr 21 18:55 SSE 13 10 Clear CLR 77 46     34%   76 29.87        
Apr 21 18:35 SSE 16 10 Clear CLR 77 46     34%   76 29.87        
Apr 21 18:15 SSE 13 10 Clear CLR 79 48     34%   78 29.88        
Apr 21 17:55 S 13 10 Clear CLR 79 46     32%   78 29.88        
Apr 21 17:35 S 15 10 Clear CLR 81 46     30%   80 29.89        
Apr 21 17:15 SSE 18 10 Clear CLR 81 46     30%   80 29.89        
Apr 21 16:55 S 20 10 Clear and Windy CLR 81 46     30%   80 29.89        
Apr 21 16:35 S 17 10 Clear CLR 81 48     32%   80 29.9        
Apr 21 16:15 S 15 10 Clear CLR 81 48     32%   80 29.9        
Apr 21 15:55 S 11 10 Clear CLR 81 48     32%   80 29.91        
Apr 21 15:35 S 15 10 Clear CLR 81 48     32%   80 29.91        
Apr 21 15:15 S 18 10 Clear CLR 81 50     34%   80 29.92        
Apr 21 14:55 S 18 10 Clear CLR 81 46     30%   80 29.93        
Apr 21 14:35 SSE 17 10 Clear CLR 81 48     32%   80 29.93        
Apr 21 14:15 SSE 13 10 Clear CLR 79 48     34%   78 29.94        
Apr 21 13:55 SSE 17 10 Clear CLR 79 52     39%   78 29.93        
Apr 21 13:35 SSE 20 10 Clear and Windy CLR 77 52     41%   76 29.94        
Apr 21 13:15 S 18 10 Clear CLR 77 52     41%   76 29.95        
Apr 21 12:55 S 15 10 Clear CLR 77 52     41%   76 29.95        
Apr 21 12:35 SSE 15 10 Clear CLR 77 52     41%   76 29.96        
Apr 21 12:15 S 14 10 Clear CLR 75 50     41%   74 29.97        
Apr 21 11:55 S 11 10 Clear CLR 73 52     47%   73 29.98        
Apr 21 11:35 S 14 10 Clear CLR 72 50     46%   71 29.99        
Apr 21 11:15 SSE 11 10 Clear CLR 73 52     47%   73 29.99        
Apr 21 10:55 SSE 8 10 Clear CLR 72 52     50%   71 29.99        
Apr 21 10:35 S 7 10 Clear CLR 72 52     50%   71 29.99        
Apr 21 10:15 S 11 10 Clear CLR 70 50     49%     29.99        
Apr 21 09:55 S 14 10 Clear CLR 70 50     49%     29.99        
Apr 21 09:35 S 13 10 Clear CLR 68 50     53%     29.99        
Apr 21 09:15 S 8 10 Clear CLR 64 50     60%     29.98        
Apr 21 08:55 SSE 8 10 Clear CLR 63 50     63%     29.98        
Apr 21 08:35 SE 6 10 Clear CLR 61 50     68%     29.98        
Apr 21 08:15 SE 6 10 Clear CLR 57 48     72%     29.97        
Apr 21 07:55 SE 3 10 Clear CLR 54 46     77%     29.97        
Apr 21 07:35 SE 5 10 Clear CLR 52 46     82%     29.97        
Apr 21 07:15 SE 3 10 Clear CLR 50 45     82%     29.96        
Notice The following observation data may not be complete
Apr 21 06:55 SE 6 10 Clear CLR   45      %     29.95        
Apr 21 06:35 Calm 10 Clear CLR 50 45     82%     29.95        
Apr 21 06:15 Calm 10 Clear CLR 50 45     82%     29.94        
Apr 21 05:55 SE 3 10 Clear CLR 50 45     82%     29.93        
Apr 21 05:35 Calm 10 Clear CLR 50 45     82%     29.93        
Apr 21 05:15 SE 6 10 Clear CLR 50 45     82%     29.93        
Notice The following observation data may not be complete
Apr 21 04:55 SE 5 10 Clear CLR   45      %     29.92        
Notice The following observation data may not be complete
Apr 21 04:35 Calm 10 Clear CLR   45      %     29.92        
Apr 21 04:15 Calm 10 Clear CLR 50 45     82%     29.93        
Apr 21 03:55 Calm 10 Clear CLR 50 43     76%     29.93        
Apr 21 03:35 Calm 10 Clear CLR 50 43     76%     29.93        
Apr 21 03:15 Calm 10 Clear CLR 50 43     76%     29.93        
Apr 21 02:55 Calm 10 Clear CLR 50 43     76%     29.93        
Apr 21 02:35 ESE 3 10 Clear CLR 50 43     76%     29.93        
Apr 21 02:15 Calm 10 Clear CLR 50 43     76%     29.94        
Apr 21 01:55 Calm 10 Clear CLR 50 43     76%     29.94        
Apr 21 01:35 Calm 10 Clear CLR 50 43     76%     29.94        
Apr 21 01:15 Calm 10 Clear CLR 50 43     76%     29.94        
Apr 21 00:55 Calm 10 Clear CLR 50 43     76%     29.94        
Apr 21 00:35 Calm 10 Clear CLR 50 43     76%     29.94        
Apr 21 00:15 Calm 10 Clear CLR 52 43     71%     29.94        
Apr 20 23:55 Calm 10 Clear CLR 54 43     67%     29.94        
Apr 20 23:35 Calm 10 Clear CLR 55 43     62%     29.93        
Apr 20 23:15 Calm 10 Clear CLR 57 43     59%     29.93        
Apr 20 22:55 SSE 3 10 Clear CLR 55 43     62%     29.93        
Apr 20 22:35 SE 3 10 Clear CLR 54 43     67%     29.93        
Apr 20 22:15 Calm 10 Clear CLR 54 45     71%     29.93        
Apr 20 21:55 Calm 10 Clear CLR 54 45     71%     29.92        
Apr 20 21:35 Calm 10 Clear CLR 55 45     67%     29.92        
Apr 20 21:15 Calm 10 Clear CLR 55 45     67%     29.92        
Apr 20 20:55 Calm 10 Clear CLR 59 43     55%     29.91        
Apr 20 20:35 Calm 10 Clear CLR 59 43     55%     29.91        
Apr 20 20:15 SE 3 10 Clear CLR 63 45     52%     29.91        
Apr 20 19:55 SSE 3 10 Clear CLR 66 43     43%     29.91        
Apr 20 19:35 Calm 10 Clear CLR 70 43     38%     29.91        
Apr 20 19:15 S 3 10 Clear CLR 72 43     35%   70 29.91        
Apr 20 18:55 S 3 10 Clear CLR 72 43     35%   70 29.91        
Apr 20 18:35 SW 5 10 Clear CLR 73 43     33%   72 29.92        
Apr 20 18:15 SW 3 10 Clear CLR 73 43     33%   72 29.92        
Apr 20 17:55 SSW 3 10 Clear CLR 73 43     33%   72 29.93        
Apr 20 17:35 SW 5 10 Clear CLR 73 41     31%   72 29.93        
Apr 20 17:15 WSW 6 10 Clear CLR 75 43     31%   74 29.94        
Apr 20 16:55 SW 3 10 Clear CLR 75 41     29%   74 29.94        
Apr 20 16:35 WSW 8 10 Clear CLR 75 41     29%   74 29.94        
Apr 20 16:15 SW 7 10 Clear CLR 73 43     33%   72 29.96        
Apr 20 15:55 WSW 5 10 Clear CLR 73 41     31%   72 29.96        
Apr 20 15:35 SW 5 10 Clear CLR 73 41     31%   72 29.97        
Apr 20 15:15 Calm 10 Clear CLR 73 41     31%   72 29.98        
Apr 20 14:55 WSW 7 10 Clear CLR 73 41     31%   72 29.99        
Apr 20 14:35 SSW 6 10 Clear CLR 73 41     31%   72 29.99        
Apr 20 14:15 SSW 3 10 Clear CLR 73 41     31%   72 30        
Apr 20 13:55 Calm 10 Clear CLR 72 37     29%   70 30.01        
Apr 20 13:35 S 6 10 Clear CLR 72 39     31%   70 30.01        
Apr 20 13:15 Calm 10 Clear CLR 72 37     29%   70 30.02        
Apr 20 12:55 W 5 10 Clear CLR 70 37     31%     30.03        
Apr 20 12:35 Calm 10 Clear CLR 68 36     30%     30.04        
Apr 20 12:15 SW 5 10 Clear CLR 68 36     30%     30.05        
Apr 20 11:55 SW 7 10 Clear CLR 68 37     32%     30.06        
Apr 20 11:35 S 3 10 Clear CLR 66 37     35%     30.06        
Apr 20 11:15 SW 3 10 Clear CLR 64 37     37%     30.07        
Apr 20 10:55 SW 3 10 Clear CLR 64 37     37%     30.07        
Apr 20 10:35 W 3 10 Clear CLR 63 41     45%     30.07        
Apr 20 10:15 W 3 10 Clear CLR 61 41     48%     30.07        
Apr 20 09:55 WSW 3 10 Clear CLR 61 41     48%     30.06        
Apr 20 09:35 Calm 10 Clear CLR 57 43     59%     30.06        
Apr 20 09:15 Calm 10 Clear CLR 54 43     67%     30.06        
Apr 20 08:55 Calm 10 Clear CLR 48 45     87%     30.06        
Apr 20 08:35 Calm 10 Clear CLR 45 45     100%     30.06        
Apr 20 08:15 Calm 10 Clear CLR 41 41     100%     30.06        
Apr 20 07:55 Calm 10 Clear CLR 36 36     100%     30.04        
Apr 20 07:35 Calm 10 Clear CLR 36 36     100%     30.05        
Apr 20 07:15 Calm 10 Clear CLR 34 34     100%     30.04        
Apr 20 06:55 Calm 10 Clear CLR 32 32     100%     30.03        
Apr 20 06:35 Calm 10 Clear CLR 32 32     100%     30.02        
Apr 20 06:15 Calm 10 Clear CLR 32 32     100%     30        
Apr 20 05:55 Calm 10 Clear CLR 32 32     100%     29.99        
Apr 20 05:35 Calm 10 Clear CLR 34 32     93%     30        
Apr 20 05:15 Calm 10 Clear CLR 32 32     100%     30        
Apr 20 04:55 Calm 10 Clear CLR 34 32     93%     30.01        
Apr 20 04:35 Calm 10 Clear CLR 34 34     100%     30.01        
Apr 20 04:15 Calm 10 Clear CLR 34 34     100%     30.01        
Apr 20 03:55 Calm 10 Clear CLR 34 34     100%     30.01        
Apr 20 03:35 Calm 10 Clear CLR 34 34     100%     30        
Apr 20 03:15 Calm 10 Clear CLR 34 34     100%     30        
Apr 20 02:55 Calm 10 Clear CLR 36 34     93%     30        
Apr 20 02:35 Calm 10 Clear CLR 36 36     100%     30.01        
Apr 20 02:15 Calm 10 Clear CLR 36 36     100%     30.01        
Apr 20 01:55 Calm 10 Clear CLR 36 34     93%     30.01        
Apr 20 01:35 Calm 10 Clear CLR 36 36     100%     30.01        
Apr 20 01:15 Calm 10 Clear CLR 36 34     93%     30.02        
Apr 20 00:55 Calm 10 Clear CLR 37 36     93%     30.02        
Apr 20 00:35 Calm 10 Clear CLR 39 36     87%     30.01        
Apr 20 00:15 Calm 10 Clear CLR 41 36     81%     30.01        
Apr 19 23:55 Calm 10 Clear CLR 41 36     81%     30.01        
Apr 19 23:35 Calm 10 Clear CLR 43 36     76%     30        
Apr 19 23:15 N 3 10 Clear CLR 43 36     76% 41   30.01        
Apr 19 22:55 NNW 5 10 Clear CLR 43 37     81% 40   30        
Apr 19 22:35 NNW 5 10 Clear CLR 45 37     76% 42   30        
Apr 19 22:15 NW 5 10 Clear CLR 45 37     76% 42   30        
Apr 19 21:55 NW 5 10 Clear CLR 45 37     76% 42   30        
Apr 19 21:35 NW 5 10 Clear CLR 48 37     66% 46   30        
Apr 19 21:15 NW 5 10 Clear CLR 50 36     58%     29.99        
Apr 19 20:55 NW 3 10 Clear CLR 52 36     54%     29.99        
Apr 19 20:35 NW 5 10 Clear CLR 52 36     54%     29.98        
Apr 19 20:15 NNW 7 10 Clear CLR 54 36     50%     29.97        
Apr 19 19:55 NNW 8 10 Clear CLR 55 36     47%     29.97        
Apr 19 19:35 NNW 11 10 Clear CLR 59 36     41%     29.97        
Apr 19 19:15 NNW 11 10 Clear CLR 59 36     41%     29.98        
Apr 19 18:55 NNW 13 10 Clear CLR 61 36     39%     29.98        
Apr 19 18:35 NNW 16 10 Clear CLR 61 36     39%     29.98        
Apr 19 18:15 NNW 18 10 Clear CLR 61 36     39%     29.97        
Apr 19 17:55 NNW 18 10 Clear CLR 63 36     36%     29.97        
Apr 19 17:35 NNW 17 10 Clear CLR 63 36     36%     29.97        
Apr 19 17:15 NNW 18 10 Clear CLR 63 36     36%     29.96        
Apr 19 16:55 NW 20 10 Clear and Windy CLR 63 36     36%     29.97        
Apr 19 16:35 NNW 22 10 Clear and Windy CLR 63 37     39%     29.97        
Apr 19 16:15 NNW 15 10 Partly Cloudy SCT060 63 37     39%     29.97        
Apr 19 15:55 NNW 18 10 Partly Cloudy SCT060 63 37     39%     29.97        
Apr 19 15:35 NNW 24 10 Clear and Windy CLR 63 37     39%     29.98        
Apr 19 15:15 NNW 20 10 Partly Cloudy and Windy SCT060 63 37     39%     29.98        
Apr 19 14:55 NNW 22 10 Partly Cloudy and Windy SCT060 63 37     39%     29.99        
Apr 19 14:35 NW 20 10 Partly Cloudy and Windy SCT060 61 37     42%     29.99        
Apr 19 14:15 NW 20 10 Clear and Windy CLR 61 37     42%     29.99        
Apr 19 13:55 NNW 18 10 Partly Cloudy SCT055 61 37     42%     29.99        
Apr 19 13:35 NW 22 10 Partly Cloudy and Windy SCT055 61 37     42%     30        
Apr 19 13:15 NNW 17 10 Partly Cloudy SCT055 61 39     45%     30        
Apr 19 12:55 NNW 21 10 Partly Cloudy and Windy SCT055 59 37     45%     30.01        
Apr 19 12:35 N 21 10 Clear and Windy CLR 59 37     45%     30.02        
Apr 19 12:15 NNW 21 10 Partly Cloudy and Windy SCT045 57 41     55%     30.02        
Apr 19 11:55 NNW 20 10 Partly Cloudy and Windy SCT047 55 37     51%     30.02        
Apr 19 11:35 N 17 10 Partly Cloudy SCT045 SCT050 55 37     51%     30.02        
Apr 19 11:15 NNW 21 10 Partly Cloudy and Windy SCT045 SCT055 55 39     54%     30.03        
Apr 19 10:55 N 21 10 Partly Cloudy and Windy SCT043 SCT050 55 39     54%     30.03        
Apr 19 10:35 N 21 10 Partly Cloudy and Windy SCT041 54 37     54%     30.02        
Apr 19 10:15 NNW 18 10 Partly Cloudy SCT041 55 39     54%     30.02        
Apr 19 09:55 N 18 10 Clear CLR 54 39     58%     30.02        
Apr 19 09:35 N 16 10 Clear CLR 52 39     62%     30.01        
Apr 19 09:15 N 20 10 Clear and Windy CLR 52 41     67%     30.01        
Apr 19 08:55 N 17 10 Clear CLR 50 41     71%     30.01        
Apr 19 08:35 N 15 10 Clear CLR 50 41     71%     30        
Apr 19 08:15 N 17 10 Clear CLR 48 41     76% 42   30        
Apr 19 07:55 NNW 13 10 Clear CLR 46 41     81% 41   29.99        
Apr 19 07:35 NNW 15 10 Clear CLR 46 41     81% 40   29.98        
Apr 19 07:15 NNW 9 10 Clear CLR 45 41     87% 40   29.97        
Apr 19 06:55 NNW 8 10 Partly Cloudy SCT075 45 41     87% 40   29.96        
Apr 19 06:35 NNW 7 10 Partly Cloudy SCT075 45 41     87% 41   29.94        
Apr 19 06:15 NNW 7 10 Partly Cloudy SCT060 SCT075 45 41     87% 41   29.94        
Apr 19 05:55 NNW 8 10 Partly Cloudy SCT060 46 41     81% 42   29.93        
Apr 19 05:35 NNW 7 10 Mostly Cloudy BKN060 BKN075 BKN095 46 41     81% 43   29.93        
Apr 19 05:15 N 8 10 Clear CLR 46 41     81% 42   29.92        
May 15 08:55 Calm 10 Clear CLR 64 63     94%     29.98        
Notice The following observation data may not be complete
May 15 01:15   10 Clear CLR          %              
May 15 00:35 Calm 10 Clear CLR 70 64     83%     29.96        
May 14 23:55 Calm 10 Clear CLR 70 64     83%     29.97        
May 14 12:15 SSW 9 10 Clear CLR 84 64     52%   86 29.99        
May 14 11:15 SSW 8 10 Clear CLR 82 68     62%   85 30        
May 14 05:35 Calm 10 Clear   66 63     88%     29.97        
May 13 22:40 Calm 10 Clear CLR 72 63     73%   72 29.99        
May 13 16:15 SSE 17 10 Clear CLR 86 64     49%   88 29.98        
May 13 14:15 S 10 10 Clear CLR 86 64     49%   88 30.02        
May 13 13:35 SSE 11 10 Clear CLR 86 66     52%   88 30.03        
Notice The following observation data may not be complete
May 13 06:15   10 Clear CLR          %              
May 13 04:55 Calm 10 Clear CLR 63 63     100%     29.99        
May 12 22:55 SE 3 10 Clear CLR 70 63     78%     29.99        
May 12 15:55 S 14 10 Clear   82 64     55%   84 29.96        
May 12 09:35 S 16 10 Clear CLR 73 64     73%   74 29.98        
May 12 04:35 S 8 10 Clear CLR 70 61     73%     29.91        
May 12 01:15 Calm 10 Clear CLR 70 61     73%     29.91        
May 12 00:15 SSE 6 10 Clear CLR 72 61     69%   72 29.9        
May 11 22:55 SSE 6 10 Clear CLR 72 61     69%   72 29.9        
May 11 21:35 SSE 6 10 Clear CLR 73 61     65%   73 29.85        
May 11 15:15   10 Clear CLR 82 61     48%   83 29.85        
May 11 08:35 S 15 10 Clear CLR 72 61     69%   72 29.92        
Jun 12 05:55 SE 6 10 Partly Cloudy SCT020 68 64     88%     29.95        
Jun 12 03:55 SSE 3 10 Clear CLR 70 63     78%     29.94        
Notice The following observation data may not be complete
Jun 11 23:35   10 Clear            %              
Jun 11 19:55 SSE 10 10 Clear CLR 81 64     58%   82 29.9        
Notice The following observation data may not be complete
Jun 11 10:35   10 Partly Cloudy SCT024 SCT030          %              
Notice The following observation data may not be complete
Jun 10 16:35   10 Partly Cloudy SCT039          %              
Jun 10 14:55 S 16 10 Partly Cloudy SCT039 84 66     55%   87 29.91        
Jun 10 13:15 SSE 14 10 Clear CLR 82 64     55%   84 29.91        
Notice The following observation data may not be complete
Jun 10 11:15   10 Clear CLR          %              
Jun 10 10:15 SSE 17 10 Clear CLR 77 59     54%   77 29.93        
Notice The following observation data may not be complete
Jun 10 09:15   10 Clear CLR          %              
Jun 09 16:35 SSE 6 10 Clear   82 57     42%   82 29.91        
Jun 09 09:35 SSE 7 10 Clear CLR 73 59     61%   73 29.98        
Jun 08 22:55 Calm 10 Clear CLR 59 57     94%     29.96        
Jun 08 12:55 Calm 10 Clear CLR 81 52     37%   80 30.04        
Jun 08 08:55 Calm 10 Clear CLR 70 55     60%     30.08        
Jun 08 08:15 ESE 3 10 Clear CLR 64 55     73%     30.06        
Jun 07 23:35 Calm 10 Clear CLR 61 55     82%     30.04        
Jun 07 22:35 Calm 10 Clear CLR 61 55     82%     30.03        
Jun 07 13:55 E 10 10 Clear CLR 81 52     37%   80 30.05        
Jun 07 12:15 ENE 8 10 Clear CLR 79 54     42%   78 30.07        
Jun 07 08:55 ENE 5 10 Clear CLR 66 54     64%     30.05        
Jun 06 15:15 NNE 7 10 Clear CLR 86 61     43%   86 29.9        
Jun 06 12:35 N 8 10 Clear CLR 86 63     46%   87 29.91        
Notice The following observation data may not be complete
Jun 06 07:15   10 Clear CLR          %              
Jun 06 05:15 Calm 0.25 Fog VV002 61 61     100%     29.89        
Notice The following observation data may not be complete
Jun 06 03:35   0.5 Fog VV005          %              
Notice The following observation data may not be complete
Jun 05 20:35   10 Clear CLR          %              
Jun 05 18:15 NE 6 10 Partly Cloudy SCT040 SCT046 SCT050 84 68     58%   87 29.79        
Jun 05 15:55 N 9 10 Partly Cloudy SCT035 84 70     62%   88 29.79